Location: The D'Auria's Ocala Star Observatory
(29.0276°N, 82.1742°W)
Time: 19:47:39
(UTC-05:00)

Daily predictions for brighter satellites

Satellite Brightness Start Highest point End
(mag) Time Altitude Azimuth Time Altitude Azimuth Time Altitude Azimuth
CZ-3B DEB 2.9 17:49:39 10° W 17:52:19 30° NNW 17:57:52 10° NNE
Cosmos 2366 rocket 4.3 17:48:24 10° N 17:54:30 48° E 18:00:30 10° SSE
MSX 4.3 17:50:06 10° SE 17:55:21 38° ENE 18:00:38 10° N
Delta 2 Rocket 3.1 17:52:50 10° WSW 17:56:30 83° NNW 18:00:39 10° ENE
Cosmos 2218 Rocket 4.0 17:52:58 10° N 17:59:09 61° E 18:05:14 10° SSE
CZ-4 R/B 1.5 17:55:26 10° SSE 17:59:37 89° ENE 18:03:48 10° NNW
Cosmos 2278 Rocket 2.2 17:54:38 10° SSW 18:00:17 87° ESE 18:05:57 10° NNE
SMAP 3.0 17:55:56 10° SSE 18:00:31 66° ENE 18:05:08 10° N
Cosmos 1238 Rocket 2.3 18:01:08 10° S 18:04:09 74° W 18:07:05 10° N
SJ-12 3.9 18:00:48 10° SSE 18:04:53 86° ENE 18:08:59 10° N
Thor Agena Rocket 4.1 18:00:18 10° N 18:05:27 62° WNW 18:10:38 10° SSW
CZ-2C R/B 2.4 18:01:49 10° SSE 18:06:42 80° ENE 18:11:46 10° N
OTV 4 0.7 18:05:09 10° NW 18:08:04 49° NNE 18:10:59 10° E
SL-24 DEB 4.5 18:03:31 10° NNE 18:08:06 50° E 18:12:37 10° SSE
MOS 1 4.4 18:07:44 10° SSE 18:13:25 86° WSW 18:19:05 10° NNW
Cosmos 1975 3.3 18:10:38 10° NNE 18:14:24 37° E 18:18:09 10° SSE
COSMOS 2406 3.9 18:09:14 10° NNW 18:14:52 61° WSW 18:20:30 10° S
Meteor 1-12 Rocket 4.4 18:09:43 10° N 18:15:27 58° E 18:21:15 10° SSE
Cosmos 2251 Rocket 3.5 18:11:24 10° N 18:16:42 62° ENE 18:21:55 10° SSE
SL-27 R/B 2.7 18:19:28 10° NNW 18:23:07 75° WSW 18:26:41 10° S
Cosmos 1484 Rocket 2.9 18:22:22 10° SSE 18:25:59 45° ENE 18:29:34 10° N
Meteor 1-13 Rocket 4.3 18:22:34 10° S 18:28:00 53° E 18:33:34 10° NNE
NOSS 2-1 (D) 3.3 18:27:03 10° SSW 18:30:49 58° ESE 18:33:30 18° NE
NOSS 2-1 (C) 3.3 18:27:44 10° SSW 18:31:31 56° ESE 18:34:09 19° NE
Cosmos 2082 Rocket 3.3 18:28:00 10° NNE 18:32:09 20° ENE 18:33:42 18° E
DMSP B5D1-3 4.5 18:28:25 10° NNE 18:33:32 66° ESE 18:38:36 10° S
Cosmos 1833 Rocket 4.1 18:30:02 10° NNE 18:33:05 17° NE 18:33:05 17° NE
Cosmos 1743 3.8 18:35:16 23° E 18:35:16 23° E 18:38:05 10° SE
Meteor 2-21 4.5 18:30:02 10° N 18:36:05 56° E 18:42:03 10° SSE
COSMO-SKYMED 1 2.9 18:37:00 10° N 18:41:19 69° WNW 18:45:37 10° SSW
Cosmos 1500 3.0 18:40:43 10° N 18:44:32 77° E 18:48:23 10° S
GRACE-2 3.7 18:42:09 10° S 18:44:55 83° E 18:46:42 20° N
Nadezhda 3 Rocket 3.9 18:38:47 10° S 18:44:56 86° E 18:51:12 10° N
GRACE-1 3.7 18:42:34 10° S 18:45:21 86° E 18:47:13 19° N
Meteor 1-28 Rocket 3.1 18:45:29 12° NNE 18:48:56 81° E 18:52:42 10° S
Timation 1 Rocket 4.3 18:44:00 10° SSW 18:49:57 87° ESE 18:55:27 12° NNE
NOSS 2-1 (E) 3.2 18:46:12 10° SSW 18:50:04 90° WNW 18:52:08 27° NNE
Palapa 6 Rocket 4.5 18:46:32 10° WSW 18:52:41 45° S 18:56:05 20° ESE
GEOS 3 Rocket 4.1 18:53:31 30° E 18:54:57 36° NE 18:59:35 10° NNW
Meteor 2-4 Rocket 3.7 18:49:43 10° S 18:54:58 52° E 18:58:30 20° NNE
Hubble Space Telescope 3.5 18:54:02 10° WSW 18:56:32 15° SSW 18:59:01 10° S
Tiangong 1 3.2 18:54:45 10° WNW 18:56:48 16° NNW 18:57:12 16° NNW
CZ-3B R/B 3.4 18:54:12 10° WSW 18:57:55 26° S 18:58:18 25° S
Meteor 2-14 Rocket 4.4 18:52:01 10° N 18:58:06 62° E 19:04:09 10° SSE
Cosmos 2056 Rocket 3.8 18:54:02 10° S 18:59:10 46° ESE 19:00:49 35° ENE
NOSS 7 (D) 4.4 18:55:54 10° SSW 18:59:48 67° ESE 19:00:12 60° ENE
GPS 2-14 Rocket1 4.5 18:57:31 10° WSW 19:00:52 25° S 19:02:33 19° SE
Cosmos 1025 Rocket 2.9 19:01:25 10° S 19:05:45 72° E 19:07:27 36° NNE
Cosmos 2369 Rocket 4.3 19:04:28 10° SE 19:04:29 10° SE 19:04:29 10° SE
Cosmos 921 Rocket 3.9 19:07:25 10° SSW 19:11:28 47° WNW 19:14:35 16° N
ATLAS 3B CENTAUR R/B 3.4 18:52:45 10° W 19:12:26 86° S 19:15:57 37° E
Cosmos 1624 Rocket 3.8 19:07:48 10° S 19:12:57 71° ESE 19:14:32 44° NE
COSMOS 2487 3.8 19:11:05 10° NNW 19:19:57 - SSE 19:13:00 30° NNW
Cosmos 1371 Rocket 4.0 19:12:00 10° SSW 19:17:20 82° WNW 19:20:09 29° N
Okean 2 4.4 19:14:38 10° S 19:17:04 33° SSE 19:17:04 33° SSE
Meteor 2-16 Rocket 4.3 19:14:42 10° N 19:20:48 90° ENE 19:26:53 10° S
Mugunghwa Rocket 4.4 19:19:56 10° W 19:28:01 76° S 19:30:18 48° ESE
Delta 128 4.1 19:31:11 10° WSW 19:37:43 76° S 19:38:02 73° SE
ATLAS 2AS CENTAUR R/B 4.2 19:33:03 10° NW 19:40:10 39° WSW 19:46:45 10° S
OTV 4 3.8 19:42:05 10° W 19:42:43 13° WSW 19:42:43 13° WSW
Cosmos 1934 Rocket 4.0 19:43:12 10° N 19:49:25 78° W 19:55:42 10° S
Centaur D-1AR AC-41 4.5 19:36:29 10° W 20:01:00 54° SSW 20:02:21 48° SSE
Aurora 2 Rocket 4.2 20:04:28 10° W 20:14:54 69° S 20:15:11 69° S
Cosmos 2082 Rocket 3.3 20:11:01 10° NW 20:15:49 41° W 20:15:49 41° W
Cosmos 1833 Rocket 4.4 20:12:26 10° NNW 20:14:57 26° NW 20:14:57 26° NW
